This is the latest recevied weather packets stored in our database for station/object AB4KN. If no packets are shown the sender has not sent any weather packets the latest 10 day(s).
| Time | Temp. | Humidity | Pressure | Rain* | Wind** | Luminosity | Snow |
|---|---|---|---|---|---|---|---|
| 1777561963 | 16.67° C | 78% | 1017.5 hPa | 0 mm | - | 137 W/m² | - |
| 1777561661 | 16.67° C | 79% | 1017.4 hPa | 0 mm | - | 115 W/m² | - |
| 1777561356 | 16.67° C | 78% | 1017.6 hPa | 0 mm | - | 114 W/m² | - |
| 1777561051 | 16.67° C | 80% | 1017.2 hPa | 0 mm | - | 110 W/m² | - |
| 1777560747 | 16.67° C | 80% | 1017.2 hPa | 0 mm | - | 114 W/m² | - |
| 1777560444 | 16.11° C | 82% | 1017.3 hPa | 0 mm | - | 85 W/m² | - |
| 1777560142 | 16.11° C | 82% | 1017.3 hPa | 0 mm | - | 40 W/m² | - |
| 1777559838 | 16.11° C | 82% | 1017.3 hPa | 0 mm | - | 30 W/m² | - |
| 1777559534 | 16.11° C | 82% | 1017.4 hPa | 0 mm | - | 31 W/m² | - |
| 1777559232 | 16.11° C | 82% | 1017.3 hPa | 0 mm | - | 31 W/m² | - |
| 1777558932 | 16.11° C | 82% | 1017.3 hPa | 0 mm | - | 42 W/m² | - |
| 1777558628 | 16.11° C | 82% | 1017 hPa | 0 mm | - | 47 W/m² | - |
| 1777558324 | 16.11° C | 82% | 1017.1 hPa | 0 mm | - | 55 W/m² | - |
| 1777558021 | 16.11° C | 82% | 1017.2 hPa | 0 mm | - | 53 W/m² | - |
| 1777557717 | 16.67° C | 82% | 1017.1 hPa | 0 mm | - | 52 W/m² | - |
| 1777557413 | 16.67° C | 83% | 1017 hPa | 0 mm | - | 47 W/m² | - |
| 1777557110 | 16.67° C | 83% | 1017.2 hPa | 0 mm | - | 45 W/m² | - |
| 1777556805 | 16.67° C | 83% | 1017.1 hPa | 0 mm | - | 41 W/m² | - |
| 1777556503 | 16.67° C | 83% | 1017.1 hPa | 0 mm | - | 35 W/m² | - |
| 1777556201 | 16.67° C | 83% | 1016.8 hPa | 0 mm | - | 35 W/m² | - |
| 1777555898 | 16.67° C | 83% | 1016.6 hPa | 0 mm | - | 36 W/m² | - |
| 1777555593 | 16.67° C | 83% | 1017 hPa | 0 mm | - | 34 W/m² | - |
| 1777555291 | 16.67° C | 84% | 1016.8 hPa | 0 mm | - | 30 W/m² | - |
| 1777554987 | 16.67° C | 84% | 1016.5 hPa | 0 mm | - | 37 W/m² | - |
| 1777554684 | 16.67° C | 84% | 1016.5 hPa | 0 mm | - | 38 W/m² | - |
* Rain latest hour (hover to see other rain measurements)
** Current wind speed in m/s (hover to see current wind gust speed)